Вернуться в каталог

COSMOS 766

АктивенНавигацияLEO
NORAD 8290·PAYLOAD·🇷🇺 Russia

Запущен Sep 17, 1975 с Plesetsk Cosmodrome

Loading…

Ближайшие Пролёты (ближайшие 24 часа)

TLE

СвежийSource: Space-Track

Эпоха: Sep 14, 2026, 15:00 UTC

1 08290U 75086F   26257.62534738 -.00000020  00000-0 -23049-4 0  9991
2 08290  74.0122  23.2725 0041870  77.9430 292.9240 12.53299931332974

Отслеживайте COSMOS 766 в реальном времени с AllMySat

Download on the App Store